TimeMST,TemperatureF,Dew PointF,Humidity,Sea Level PressureIn,VisibilityMPH,Wind Direction,Wind SpeedMPH,Gust SpeedMPH,PrecipitationIn,Events,Conditions,WindDirDegrees,DateUTC
12:15 AM,-9.4,-14.8,77,30.21,10.0,Calm,Calm,-,N/A,,Clear,0,2014-01-29 07:15:00
12:35 AM,-9.4,-16.6,71,30.21,10.0,Calm,Calm,-,N/A,,Clear,0,2014-01-29 07:35:00
12:55 AM,-9.4,-14.8,77,30.21,10.0,Calm,Calm,-,N/A,,Clear,0,2014-01-29 07:55:00
1:15 AM,-9.4,-14.8,77,30.21,10.0,Calm,Calm,-,N/A,,Clear,0,2014-01-29 08:15:00
1:35 AM,-9.4,-14.8,77,30.20,10.0,Calm,Calm,-,N/A,,Clear,0,2014-01-29 08:35:00
1:55 AM,-11.2,-16.6,77,30.19,10.0,Calm,Calm,-,N/A,,Clear,0,2014-01-29 08:55:00
2:15 AM,-11.2,-16.6,77,30.19,10.0,Calm,Calm,-,N/A,,Clear,0,2014-01-29 09:15:00
2:35 AM,-9.4,-16.6,71,30.18,10.0,NE,3.5,-,N/A,,Clear,50,2014-01-29 09:35:00
2:55 AM,-9.4,-14.8,77,30.18,10.0,Calm,Calm,-,N/A,,Clear,0,2014-01-29 09:55:00
3:15 AM,-9.4,-14.8,77,30.20,10.0,Calm,Calm,-,N/A,,Clear,0,2014-01-29 10:15:00
3:35 AM,-9.4,-16.6,71,30.19,10.0,Calm,Calm,-,N/A,,Mostly Cloudy,0,2014-01-29 10:35:00
3:55 AM,-9.4,-16.6,71,30.19,10.0,SW,3.5,-,N/A,,Scattered Clouds,230,2014-01-29 10:55:00
4:15 AM,-9.4,-14.8,77,30.18,10.0,Calm,Calm,-,N/A,,Scattered Clouds,0,2014-01-29 11:15:00
4:35 AM,-7.6,-13.0,77,30.18,10.0,Calm,Calm,-,N/A,,Overcast,0,2014-01-29 11:35:00
4:55 AM,-5.8,-11.2,77,30.18,10.0,Calm,Calm,-,N/A,,Overcast,0,2014-01-29 11:55:00
5:15 AM,-5.8,-11.2,77,30.19,10.0,Calm,Calm,-,N/A,,Overcast,0,2014-01-29 12:15:00
5:35 AM,-5.8,-11.2,77,30.18,10.0,Calm,Calm,-,N/A,,Overcast,0,2014-01-29 12:35:00
5:55 AM,-4.0,-9.4,78,30.17,10.0,Calm,Calm,-,N/A,,Overcast,0,2014-01-29 12:55:00
6:15 AM,-2.2,-7.6,78,30.17,10.0,Calm,Calm,-,N/A,,Overcast,0,2014-01-29 13:15:00
6:35 AM,-2.2,-7.6,78,30.17,10.0,Calm,Calm,-,N/A,,Overcast,0,2014-01-29 13:35:00
6:55 AM,-2.2,-7.6,78,30.17,10.0,Calm,Calm,-,N/A,,Overcast,0,2014-01-29 13:55:00
7:15 AM,-2.2,-7.6,78,30.17,10.0,Calm,Calm,-,N/A,,Overcast,0,2014-01-29 14:15:00
7:35 AM,-0.4,-7.6,72,30.18,10.0,Calm,Calm,-,N/A,,Overcast,0,2014-01-29 14:35:00
7:55 AM,-0.4,-5.8,78,30.18,10.0,Calm,Calm,-,N/A,,Overcast,0,2014-01-29 14:55:00
8:14 AM,1.4,-5.8,72,30.17,10.0,Calm,Calm,-,N/A,,Overcast,0,2014-01-29 15:14:00
8:35 AM,1.4,-5.8,72,30.18,10.0,Calm,Calm,-,N/A,,Overcast,0,2014-01-29 15:35:00
8:55 AM,3.2,-5.8,66,30.18,10.0,Calm,Calm,-,N/A,,Overcast,0,2014-01-29 15:55:00
9:15 AM,3.2,-5.8,66,30.17,10.0,Calm,Calm,-,N/A,,Overcast,0,2014-01-29 16:15:00
9:35 AM,5.0,-4.0,66,30.17,10.0,Calm,Calm,-,N/A,,Overcast,0,2014-01-29 16:35:00
9:55 AM,5.0,-4.0,66,30.16,10.0,Calm,Calm,-,N/A,,Overcast,0,2014-01-29 16:55:00
10:15 AM,8.6,-0.4,67,30.16,10.0,ESE,3.5,-,N/A,,Overcast,110,2014-01-29 17:15:00
10:35 AM,10.4,-0.4,62,30.15,10.0,Calm,Calm,-,N/A,,Overcast,0,2014-01-29 17:35:00
10:54 AM,10.4,-0.4,62,30.14,10.0,Calm,Calm,-,N/A,,Overcast,0,2014-01-29 17:54:00
11:14 AM,10.4,-0.4,62,30.12,10.0,Calm,Calm,-,N/A,,Overcast,0,2014-01-29 18:14:00
11:35 AM,12.2,-0.4,57,30.10,10.0,Calm,Calm,-,N/A,,Scattered Clouds,0,2014-01-29 18:35:00
11:55 AM,14.0,-0.4,53,30.08,10.0,Calm,Calm,-,N/A,,Clear,0,2014-01-29 18:55:00
12:15 PM,14.0,1.4,57,30.06,10.0,Calm,Calm,-,N/A,,Clear,0,2014-01-29 19:15:00
12:35 PM,14.0,1.4,57,30.06,10.0,Calm,Calm,-,N/A,,Mostly Cloudy,0,2014-01-29 19:35:00
12:55 PM,14.0,1.4,57,30.04,10.0,Calm,Calm,-,N/A,,Overcast,0,2014-01-29 19:55:00
1:15 PM,17.6,1.4,49,30.01,10.0,Calm,Calm,-,N/A,,Scattered Clouds,0,2014-01-29 20:15:00
1:35 PM,17.6,3.2,53,29.99,10.0,Calm,Calm,-,N/A,,Clear,0,2014-01-29 20:35:00
1:54 PM,19.4,3.2,49,29.97,10.0,Calm,Calm,-,N/A,,Clear,0,2014-01-29 20:54:00
2:15 PM,19.4,3.2,49,29.96,10.0,Calm,Calm,-,N/A,,Clear,0,2014-01-29 21:15:00
2:34 PM,21.2,5.0,50,29.94,10.0,Calm,Calm,-,N/A,,Clear,0,2014-01-29 21:34:00
2:55 PM,23.0,5.0,46,29.94,10.0,Calm,Calm,-,N/A,,Mostly Cloudy,0,2014-01-29 21:55:00
3:14 PM,21.2,6.8,54,29.93,10.0,Calm,Calm,-,N/A,,Mostly Cloudy,0,2014-01-29 22:14:00
3:35 PM,23.0,8.6,54,29.91,10.0,ESE,3.5,-,N/A,,Mostly Cloudy,110,2014-01-29 22:35:00
3:55 PM,23.0,10.4,59,29.90,10.0,East,3.5,-,N/A,,Overcast,100,2014-01-29 22:55:00
4:15 PM,23.0,12.2,63,29.89,10.0,Calm,Calm,-,N/A,,Overcast,0,2014-01-29 23:15:00
4:35 PM,23.0,12.2,63,29.88,10.0,ESE,5.8,-,N/A,,Overcast,110,2014-01-29 23:35:00
4:54 PM,24.8,14.0,64,29.88,7.0,SE,3.5,-,N/A,,Overcast,140,2014-01-29 23:54:00
5:15 PM,28.4,21.2,74,29.86,7.0,Calm,Calm,-,N/A,Snow,Light Snow,0,2014-01-30 00:15:00
5:35 PM,32.0,23.0,69,29.85,10.0,WSW,8.1,19.6,N/A,,Overcast,240,2014-01-30 00:35:00
5:55 PM,33.8,24.8,70,29.83,10.0,WSW,16.1,24.2,N/A,,Overcast,240,2014-01-30 00:55:00
6:15 PM,33.8,23.0,65,29.83,10.0,SW,9.2,25.3,N/A,,Overcast,220,2014-01-30 01:15:00
6:35 PM,33.8,23.0,65,29.82,10.0,South,9.2,-,N/A,,Overcast,170,2014-01-30 01:35:00
6:55 PM,33.8,23.0,65,29.79,10.0,South,12.7,17.3,N/A,,Overcast,190,2014-01-30 01:55:00
7:15 PM,33.8,24.8,70,29.76,10.0,South,10.4,-,N/A,,Overcast,190,2014-01-30 02:15:00
7:35 PM,33.8,23.0,65,29.74,10.0,South,3.5,24.2,N/A,,Overcast,170,2014-01-30 02:35:00
7:55 PM,33.8,23.0,65,29.73,10.0,North,4.6,-,N/A,,Overcast,360,2014-01-30 02:55:00
8:15 PM,33.8,23.0,65,29.74,10.0,WNW,3.5,-,N/A,,Overcast,290,2014-01-30 03:15:00
8:35 PM,33.8,26.6,75,29.71,10.0,West,18.4,27.6,N/A,,Scattered Clouds,260,2014-01-30 03:35:00
8:55 PM,33.8,26.6,75,29.69,7.0,West,29.9,36.8,N/A,,Clear,260,2014-01-30 03:55:00
9:15 PM,33.8,26.6,75,29.68,7.0,WSW,23.0,35.7,N/A,,Clear,250,2014-01-30 04:15:00
9:35 PM,35.6,26.6,70,29.67,7.0,WSW,28.8,36.8,N/A,,Scattered Clouds,250,2014-01-30 04:35:00
9:54 PM,35.6,26.6,70,29.65,5.0,WSW,29.9,40.3,N/A,,Haze,240,2014-01-30 04:54:00
10:15 PM,35.6,26.6,70,29.63,3.0,WSW,34.5,44.9,N/A,Snow,Light Snow,240,2014-01-30 05:15:00
10:34 PM,35.6,28.4,75,29.61,3.0,WSW,32.2,46.0,N/A,Snow,Light Snow,240,2014-01-30 05:34:00
10:55 PM,35.6,26.6,70,29.61,3.0,WSW,26.5,42.6,N/A,Snow,Light Snow,240,2014-01-30 05:55:00
11:14 PM,35.6,26.6,70,29.62,4.0,WSW,28.8,40.3,N/A,Snow,Light Snow,250,2014-01-30 06:14:00
11:35 PM,35.6,28.4,75,29.61,7.0,WSW,26.5,38.0,N/A,,Overcast,250,2014-01-30 06:35:00
11:55 PM,35.6,28.4,75,29.61,5.0,WSW,27.6,40.3,N/A,Snow,Light Snow,250,2014-01-30 06:55:00